This demonstration page uses our WeatherBlox Daily Observations layout. Learn more.

Left ArrowRight Arrow

44.8408, -93.29828

Hourly Observations for December 29, 2019

Temp ( °F °C ) Dew Point ( °F °C ) Humidity (%) Winds ( mph kmh ) Pressure ( in mb ) Visibility ( mi km ) Precip ( " mm )
12:53 am 00:53 Cloudy with Light Rain 35 1.7 32 0 89 89 E 9 15 29.62 1003 5 8 0.01 0.25
1:53 am 01:53 Cloudy with Light Rain 35 1.7 32 0 89 89 ENE 13 20 29.54 1000 3 5 0.03 0.76
2:16 am 02:16 Cloudy with Light Rain 35 1.7 33 0.6 93 93 ENE 14 22 29.55 1001 2 3 0.02 0.51
2:28 am 02:28 Cloudy with Light Rain 35 1.7 33 0.6 93 93 ENE 15 24 29.55 1001 3 5 0.04 1.02
2:46 am 02:46 Cloudy with Light Rain 35 1.7 32 0 89 89 NE 16 26 29.52 1000 5 8 0.06 1.52
2:53 am 02:53 Cloudy with Light Rain 35 1.7 32 0 89 89 NE 14 22 29.49 999 4 6 0.07 1.78
3:12 am 03:12 Cloudy with Light Rain 35 1.7 33 0.6 93 93 ENE 14 22 29.50 999 3 4 0.02 0.51
3:24 am 03:24 Cloudy with Light Rain 35 1.7 33 0.6 93 93 NE 13 20 29.48 998 4 6 0.05 1.27
3:43 am 03:43 Cloudy with Light Rain 35 1.7 33 0.6 93 93 ENE 13 20 29.48 998 2 3 0.09 2.29
3:53 am 03:53 Cloudy with Light Rain 35 1.7 33 0.6 93 93 ENE 10 17 29.45 997 3 4 0.14 3.56
3:55 am 03:55 Cloudy with Light Rain 35 1.7 33 0.6 93 93 ENE 10 17 29.47 998 3 5 0.00 0.00
4:08 am 04:08 Cloudy with Light Rain 35 1.7 33 0.6 93 93 ENE 10 17 29.47 998 3 5 0.03 0.76
4:53 am 04:53 Cloudy with Light Rain 35 1.7 33 0.6 93 93 ENE 8 13 29.44 997 3 5 0.10 2.54
5:07 am 05:07 Cloudy with Light Rain 35 1.7 33 0.6 93 93 ENE 8 13 29.45 997 4 6 0.01 0.25
5:53 am 05:53 Cloudy with Drizzle 35 1.7 34 1.1 96 96 NE 9 15 29.40 996 4 6 0.02 0.51
6:53 am 06:53 Cloudy with Drizzle 36 2.2 34 1.1 93 93 ENE 6 9 29.39 995 6 10 0.00 0.00
7:16 am 07:16 Cloudy 36 2.2 34 1.1 93 93 E 8 13 29.40 995 7 11 0.00 0.00
7:53 am 07:53 Cloudy with Drizzle 37 2.8 35 1.7 93 93 ESE 9 15 29.37 995 3 5 0.00 0.00
8:42 am 08:42 Cloudy with Mist and Fog 37 2.8 35 1.7 93 93 SE 10 17 29.38 995 2 3 0.00 0.00
8:51 am 08:51 Cloudy with Mist and Fog 37 3 36 2 93 93 SE 10 17 29.38 995 1 2 0.00 0.00
8:53 am 08:53 Cloudy with Mist and Fog 37 2.8 36 2.2 96 96 SE 9 15 29.36 994 1 2 0.00 0.00
9:03 am 09:03 Cloudy with Mist and Fog 37 2.8 36 2.2 96 96 SE 8 13 29.38 995 1 1 0.00 0.00
9:22 am 09:22 Mostly Cloudy with Fog 38 3.3 37 2.8 97 97 SE 7 11 29.39 995 0 0 0.00 0.00
9:45 am 09:45 Mostly Cloudy with Fog 38 3.3 37 2.8 97 97 ESE 9 15 29.39 995 0 0 0.00 0.00
9:53 am 09:53 Mostly Cloudy with Fog 38 3.3 37 2.8 97 97 SE 8 13 29.38 995 0 0 0.00 0.00
10:09 am 10:09 Mostly Cloudy with Fog 39 3.9 38 3.3 96 96 SE 9 15 29.39 995 0 0 0.00 0.00
10:22 am 10:22 Cloudy with Light Rain 40 4.4 39 3.9 97 97 SE 10 17 29.38 995 1 1 0.00 0.00
10:34 am 10:34 Cloudy with Light Rain 40 4.4 39 3.9 97 97 SE 12 19 29.39 995 1 2 0.01 0.25
10:50 am 10:50 Cloudy with Mist and Fog 39 4 39 4 100 100 SE 9 15 29.39 995 3 4 0.02 0.51
10:53 am 10:53 Cloudy with Mist and Fog 40 4.4 39 3.9 97 97 SSE 9 15 29.37 995 3 5 0.02 0.51
11:12 am 11:12 Cloudy 41 5 39 3.9 93 93 SSE 10 17 29.38 995 10 16 0.00 0.00
11:53 am 11:53 Cloudy 42 5.6 40 4.4 92 92 S 15 24 29.37 995 10 16 0.00 0.00
12:37 pm 12:37 Cloudy with Light Rain 39 3.9 37 2.8 93 93 SSW 12 19 29.39 995 2 3 0.01 0.25
12:48 pm 12:48 Cloudy 39 4 37 3 93 93 S 12 19 29.39 995 7 11 0.01 0.25
12:53 pm 12:53 Cloudy 40 4.4 37 2.8 89 89 S 9 15 29.37 995 10 16 0.01 0.25
1:16 pm 13:16 Cloudy 40 4.4 36 2.2 86 86 S 15 24 29.39 995 10 16 0.00 0.00
1:34 pm 13:34 Cloudy 39 3.9 35 1.7 86 86 S 14 22 29.39 995 10 16 0.00 0.00
1:53 pm 13:53 Cloudy 40 4.4 34 1.1 79 79 S 10 17 29.37 995 10 16 0.00 0.00
2:53 pm 14:53 Cloudy 38 3.3 32 0 79 79 S 17 28 29.39 995 10 16 0.00 0.00
3:50 pm 15:50 Cloudy with Haze 37 3 32 0 81 81 S 13 20 29.43 997 6 10 0.00 0.00
3:53 pm 15:53 Cloudy 37 2.8 32 0 82 82 S 12 19 29.42 996 7 11 0.00 0.00
4:02 pm 16:02 Cloudy 37 2.8 32 0 82 82 S 9 15 29.43 997 9 14 0.00 0.00
4:13 pm 16:13 Cloudy 36 2.2 32 0 86 86 SSE 8 13 29.44 997 10 16 0.00 0.00
4:25 pm 16:25 Cloudy 36 2.2 32 0 86 86 SE 8 13 29.44 997 10 16 0.00 0.00
4:53 pm 16:53 Cloudy 36 2.2 33 0.6 89 89 SE 5 7 29.43 997 10 16 0.00 0.00
5:03 pm 17:03 Cloudy 36 2.2 33 0.6 89 89 SE 6 9 29.45 997 10 16 0.00 0.00
5:42 pm 17:42 Cloudy with Drizzle 36 2.2 33 0.6 89 89 SE 8 13 29.45 997 8 13 0.00 0.00
5:51 pm 17:51 Cloudy with Drizzle 36 2 34 1 93 93 SE 7 11 29.46 998 8 13 0.00 0.00
5:53 pm 17:53 Cloudy with Drizzle 36 2.2 33 0.6 89 89 SE 7 11 29.44 997 8 13 0.00 0.00
6:10 pm 18:10 Cloudy with Drizzle 36 2.2 32 0 86 86 SE 7 11 29.46 998 9 14 0.00 0.00
6:23 pm 18:23 Cloudy with Light Rain 35 1.7 32 0 89 89 SSE 9 15 29.46 998 4 6 0.00 0.00
6:33 pm 18:33 Cloudy with Light Rain 35 1.7 32 0 89 89 SE 8 13 29.46 998 10 16 0.00 0.00
6:40 pm 18:40 Cloudy with Light Rain 35 1.7 32 0 89 89 SE 8 13 29.46 998 9 14 0.00 0.00
6:48 pm 18:48 Cloudy with Light Rain 36 2 32 0 87 87 SE 8 13 29.46 998 7 11 0.00 0.00
6:53 pm 18:53 Cloudy with Drizzle 35 1.7 32 0 89 89 SE 7 11 29.44 997 8 13 0.00 0.00
7:53 pm 19:53 Cloudy 34 1.1 30 -1.1 85 85 SE 10 17 29.43 997 10 16 0.00 0.00
8:53 pm 20:53 Cloudy 34 1.1 30 -1.1 85 85 SE 9 15 29.42 996 10 16 0.00 0.00
9:53 pm 21:53 Cloudy 34 1.1 29 -1.7 82 82 ESE 10 17 29.43 997 10 16 0.00 0.00
10:53 pm 22:53 Cloudy 34 1.1 30 -1.1 85 85 ESE 8 13 29.43 997 10 16 0.00 0.00
11:53 pm 23:53 Cloudy 34 1.1 29 -1.7 82 82 E 6 9 29.42 996 10 16 0.00 0.00

Powered by AerisWeather